Time,TemperatureF,DewpointF,PressureIn,WindDirection,WindDirectionDegrees,WindSpeedMPH,WindSpeedGustMPH,Humidity,HourlyPrecipIn,Conditions,Clouds,dailyrainin,SolarRadiationWatts/m^2,SoftwareType,DateUTC
2013-07-06 00:02:00,67.0,63.0,-100.00,West,266,1.0,2.0,88,0.00,,,0.01,0.000000,,2013-07-06 04:02:00,
2013-07-06 00:11:00,66.0,65.0,-100.00,WNW,287,2.0,4.0,96,0.00,,,0.01,0.000000,,2013-07-06 04:11:00,
2013-07-06 00:43:00,66.0,65.0,-100.00,WNW,287,2.0,4.0,96,0.00,,,0.01,0.000000,,2013-07-06 04:43:00,
2013-07-06 00:53:00,66.0,65.0,-100.00,WNW,287,2.0,4.0,96,0.00,,,0.01,0.000000,,2013-07-06 04:53:00,
2013-07-06 01:02:00,66.0,65.0,-100.00,WNW,287,2.0,4.0,96,0.00,,,0.01,0.000000,,2013-07-06 05:02:00,
2013-07-06 01:11:00,66.0,62.0,-100.00,NW,313,2.0,4.0,88,0.01,,,0.02,0.000000,,2013-07-06 05:11:00,
2013-07-06 01:34:00,66.0,62.0,-100.00,NW,313,2.0,4.0,88,0.01,,,0.02,0.000000,,2013-07-06 05:34:00,
2013-07-06 01:43:00,66.0,62.0,-100.00,NW,313,2.0,4.0,88,0.01,,,0.02,0.000000,,2013-07-06 05:43:00,
2013-07-06 01:53:00,66.0,62.0,-100.00,NW,313,2.0,4.0,88,0.01,,,0.02,0.000000,,2013-07-06 05:53:00,
2013-07-06 02:02:00,66.0,62.0,-100.00,NW,313,2.0,4.0,88,0.01,,,0.02,0.000000,,2013-07-06 06:02:00,
2013-07-06 02:11:00,66.0,62.0,-100.00,West,279,1.0,4.0,88,0.00,,,0.02,0.000000,,2013-07-06 06:11:00,
2013-07-06 02:43:00,66.0,62.0,-100.00,West,279,1.0,4.0,88,0.00,,,0.02,0.000000,,2013-07-06 06:43:00,
2013-07-06 02:53:00,66.0,62.0,-100.00,West,279,1.0,4.0,88,0.00,,,0.02,0.000000,,2013-07-06 06:53:00,
2013-07-06 03:02:00,66.0,62.0,-100.00,West,279,1.0,4.0,88,0.00,,,0.02,0.000000,,2013-07-06 07:02:00,
2013-07-06 03:11:00,66.0,63.0,-100.00,North,8,1.0,4.0,90,0.00,,,0.02,0.000000,,2013-07-06 07:11:00,
2013-07-06 03:44:00,66.0,63.0,-100.00,North,8,1.0,4.0,90,0.00,,,0.02,0.000000,,2013-07-06 07:44:00,
2013-07-06 03:52:00,66.0,63.0,-100.00,North,8,1.0,4.0,90,0.00,,,0.02,0.000000,,2013-07-06 07:52:00,
2013-07-06 04:02:00,66.0,63.0,-100.00,North,8,1.0,4.0,90,0.00,,,0.02,0.000000,,2013-07-06 08:02:00,
2013-07-06 04:11:00,65.0,63.0,-100.00,NNW,330,1.0,2.0,93,0.00,,,0.02,0.000000,,2013-07-06 08:11:00,
2013-07-06 04:43:00,65.0,63.0,-100.00,NNW,330,1.0,2.0,93,0.00,,,0.02,0.000000,,2013-07-06 08:43:00,
2013-07-06 04:54:00,65.0,63.0,-100.00,NNW,330,1.0,2.0,93,0.00,,,0.02,0.000000,,2013-07-06 08:54:00,
2013-07-06 05:02:00,65.0,63.0,-100.00,NNW,330,1.0,2.0,93,0.00,,,0.02,0.000000,,2013-07-06 09:02:00,
2013-07-06 05:11:00,65.0,64.0,-100.00,West,278,2.0,5.0,96,0.00,,,0.02,0.000000,,2013-07-06 09:11:00,
2013-07-06 05:43:00,65.0,64.0,-100.00,West,278,2.0,5.0,96,0.00,,,0.02,0.000000,,2013-07-06 09:43:00,
2013-07-06 05:53:00,65.0,64.0,-100.00,West,278,2.0,5.0,96,0.00,,,0.02,0.000000,,2013-07-06 09:53:00,
2013-07-06 06:02:00,65.0,64.0,-100.00,West,278,2.0,5.0,96,0.00,,,0.02,0.000000,,2013-07-06 10:02:00,
2013-07-06 06:11:00,65.0,64.0,-100.00,West,259,4.0,6.0,97,0.00,,,0.02,0.000000,,2013-07-06 10:11:00,
2013-07-06 06:43:00,65.0,64.0,-100.00,West,259,4.0,6.0,97,0.00,,,0.02,0.000000,,2013-07-06 10:43:00,
2013-07-06 06:53:00,65.0,64.0,-100.00,West,259,4.0,6.0,97,0.00,,,0.02,0.000000,,2013-07-06 10:53:00,
2013-07-06 07:01:00,65.0,64.0,-100.00,West,259,4.0,6.0,97,0.00,,,0.02,0.000000,,2013-07-06 11:01:00,
2013-07-06 07:11:00,67.0,66.0,-100.00,West,271,4.0,9.0,96,0.00,,,0.02,54.000000,,2013-07-06 11:11:00,
2013-07-06 07:43:00,67.0,66.0,-100.00,West,271,4.0,9.0,96,0.00,,,0.02,54.000000,,2013-07-06 11:43:00,
2013-07-06 07:53:00,67.0,66.0,-100.00,West,271,4.0,9.0,96,0.00,,,0.02,54.000000,,2013-07-06 11:53:00,
2013-07-06 08:01:00,67.0,66.0,-100.00,West,271,4.0,9.0,96,0.00,,,0.02,54.000000,,2013-07-06 12:01:00,
2013-07-06 08:11:00,67.0,65.0,-100.00,West,273,4.0,7.0,93,0.00,,,0.02,85.000000,,2013-07-06 12:11:00,
2013-07-06 08:43:00,67.0,65.0,-100.00,West,273,4.0,7.0,93,0.00,,,0.02,85.000000,,2013-07-06 12:43:00,
2013-07-06 08:52:00,67.0,65.0,-100.00,West,273,4.0,7.0,93,0.00,,,0.02,85.000000,,2013-07-06 12:52:00,
2013-07-06 09:01:00,67.0,65.0,-100.00,West,273,4.0,7.0,93,0.00,,,0.02,85.000000,,2013-07-06 13:01:00,
2013-07-06 09:11:00,72.0,68.0,-100.00,West,278,6.0,12.0,88,0.00,,,0.02,305.000000,,2013-07-06 13:11:00,
2013-07-06 09:43:00,72.0,68.0,-100.00,West,278,6.0,12.0,88,0.00,,,0.02,305.000000,,2013-07-06 13:43:00,
2013-07-06 09:52:00,72.0,68.0,-100.00,West,278,6.0,12.0,88,0.00,,,0.02,305.000000,,2013-07-06 13:52:00,
2013-07-06 10:02:00,72.0,68.0,-100.00,West,278,6.0,12.0,88,0.00,,,0.02,305.000000,,2013-07-06 14:02:00,
2013-07-06 10:11:00,73.0,66.0,-100.00,West,277,5.0,10.0,78,0.00,,,0.02,437.000000,,2013-07-06 14:11:00,
2013-07-06 10:34:00,73.0,66.0,-100.00,West,277,5.0,10.0,78,0.00,,,0.02,437.000000,,2013-07-06 14:34:00,
2013-07-06 10:42:00,73.0,66.0,-100.00,West,277,5.0,10.0,78,0.00,,,0.02,437.000000,,2013-07-06 14:42:00,
2013-07-06 10:53:00,73.0,66.0,-100.00,West,277,5.0,10.0,78,0.00,,,0.02,437.000000,,2013-07-06 14:53:00,
2013-07-06 11:02:00,73.0,66.0,-100.00,West,277,5.0,10.0,78,0.00,,,0.02,437.000000,,2013-07-06 15:02:00,
2013-07-06 11:11:00,74.0,65.0,-100.00,West,280,4.0,9.0,73,0.00,,,0.02,393.000000,,2013-07-06 15:11:00,
2013-07-06 11:43:00,74.0,65.0,-100.00,West,280,4.0,9.0,73,0.00,,,0.02,393.000000,,2013-07-06 15:43:00,
2013-07-06 11:53:00,74.0,65.0,-100.00,West,280,4.0,9.0,73,0.00,,,0.02,393.000000,,2013-07-06 15:53:00,
2013-07-06 12:07:00,74.0,65.0,-100.00,West,280,4.0,9.0,73,0.00,,,0.02,393.000000,,2013-07-06 16:07:00,
2013-07-06 12:11:00,74.0,64.0,-100.00,NW,309,4.0,11.0,71,0.00,,,0.01,392.000000,,2013-07-06 16:11:00,
2013-07-06 13:11:00,75.0,70.0,-100.00,West,270,5.0,13.0,84,0.00,,,0.01,327.000000,,2013-07-06 17:11:00,
2013-07-06 14:00:00,75.0,70.0,-100.00,West,270,5.0,13.0,84,0.00,,,0.01,327.000000,,2013-07-06 18:00:00,
2013-07-06 14:08:00,75.0,70.0,-100.00,West,270,5.0,13.0,84,0.00,,,0.01,327.000000,,2013-07-06 18:08:00,
2013-07-06 14:11:00,78.0,67.0,-100.00,WNW,299,6.0,13.0,68,0.00,,,0.01,590.000000,,2013-07-06 18:11:00,
2013-07-06 15:01:00,78.0,67.0,-100.00,WNW,299,6.0,13.0,68,0.00,,,0.01,590.000000,,2013-07-06 19:01:00,
2013-07-06 15:59:00,79.0,65.0,-100.00,WNW,288,6.0,17.0,62,0.00,,,0.01,866.000000,,2013-07-06 19:59:00,
2013-07-06 16:07:00,79.0,65.0,-100.00,WNW,288,6.0,17.0,62,0.00,,,0.01,866.000000,,2013-07-06 20:07:00,
2013-07-06 16:11:00,80.0,65.0,-100.00,West,281,5.0,13.0,61,0.01,,,0.02,761.000000,,2013-07-06 20:11:00,
2013-07-06 16:52:00,80.0,65.0,-100.00,West,281,5.0,13.0,61,0.01,,,0.02,761.000000,,2013-07-06 20:52:00,
2013-07-06 17:10:00,80.0,65.0,-100.00,West,281,5.0,13.0,61,0.01,,,0.02,761.000000,,2013-07-06 21:10:00,
2013-07-06 17:11:00,76.0,61.0,-100.00,ENE,63,2.0,10.0,59,0.00,,,0.02,449.000000,,2013-07-06 21:11:00,
2013-07-06 18:09:00,76.0,61.0,-100.00,ENE,63,2.0,10.0,59,0.00,,,0.02,449.000000,,2013-07-06 22:09:00,
2013-07-06 18:11:00,76.0,67.0,-100.00,WSW,257,3.0,6.0,75,0.00,,,0.02,168.000000,,2013-07-06 22:11:00,
2013-07-06 19:01:00,76.0,67.0,-100.00,WSW,257,3.0,6.0,75,0.00,,,0.02,168.000000,,2013-07-06 23:01:00,
2013-07-06 19:09:00,76.0,67.0,-100.00,WSW,257,3.0,6.0,75,0.00,,,0.02,168.000000,,2013-07-06 23:09:00,
2013-07-06 19:52:00,70.0,67.0,-100.00,East,80,2.0,9.0,89,0.00,,,0.02,64.000000,,2013-07-06 23:52:00,
2013-07-06 20:00:00,70.0,67.0,-100.00,East,80,2.0,9.0,89,0.00,,,0.02,64.000000,,2013-07-07 00:00:00,
2013-07-06 21:11:00,66.0,65.0,-100.00,WNW,295,1.0,4.0,96,-99.99,,,0.02,5.000000,,2013-07-07 01:11:00,
2013-07-06 21:50:00,66.0,65.0,-100.00,WNW,295,1.0,4.0,96,-99.99,,,0.02,5.000000,,2013-07-07 01:50:00,
2013-07-06 22:09:00,66.0,65.0,-100.00,WNW,295,1.0,4.0,96,-99.99,,,0.02,5.000000,,2013-07-07 02:09:00,
2013-07-06 23:02:00,65.0,64.0,-100.00,West,269,1.0,3.0,98,0.00,,,0.02,0.000000,,2013-07-07 03:02:00,
2013-07-06 23:11:00,65.0,64.0,-100.00,NE,34,0.0,2.0,98,0.00,,,0.02,0.000000,,2013-07-07 03:11:00,
2013-07-06 23:44:00,65.0,64.0,-100.00,NE,34,0.0,2.0,98,0.00,,,0.02,0.000000,,2013-07-07 03:44:00,
2013-07-06 23:56:00,65.0,64.0,-100.00,NE,34,0.0,2.0,98,0.00,,,0.02,0.000000,,2013-07-07 03:56:00,